Location: ????
(55.2778°N, 39.2433°E)
Time: 05:31:25
(UTC+00:00)

Lacrosse 5 - Pass Details

Date: 14 April 2024
Orbit: 714 x 724 km, 57.0° (Epoch: 09 March)

Event Time Altitude Azimuth Distance (km) Brightness Sun altitude
Exits shadow 00:05:37 30° 230° (SW) 1,288 2.6 -16.9°
Maximum altitude 00:08:08 71° 154° (SSE) 771 1.9 -16.7°
Drops below altitude 10° 00:13:14 10° 71° (ENE) 2,222 5.4 -16.2°
Sets 00:15:37 0° 69° (ENE) 3,145 6.4 -15.9°
